Theta_e
333 332 331 330 329 328 327 327 327 325 325 324 323 323 321 320 319 319 319 318 316 314 314 315 313 312 314 313 310 307 305 304 304 303 303 302 301 301 302 303 303 305 308 311 313 313 313 314 314 315 315 315 314 314 314 314 313 312 312 312 311 311 310 310 310 309 309 309 309 309 310 310 310 310 310 310 310 311 311 311 311 311 311 312 312
333 332 332 331 329 329 328 327 327 326 326 324 323 324 322 320 319 319 320 319 317 315 314 314 311 309 310 309 307 304 302 302 301 300 300 300 298 297 297 298 298 298 300 304 308 310 311 311 311 312 313 313 313 312 312 312 312 311 311 310 310 310 309 308 308 308 308 308 307 307 308 308 308 308 309 309 309 309 310 310 310 311 311 311 312
333 332 331 331 330 329 329 328 328 327 327 325 323 324 322 320 320 320 320 319 317 315 313 312 309 306 306 305 304 301 299 299 298 298 297 296 295 294 293 293 293 294 294 295 298 302 306 308 308 309 310 311 311 311 310 310 310 310 309 309 308 308 308 307 307 307 307 307 306 306 306 306 306 307 307 307 307 308 309 309 309 309 310 310 311
333 332 330 331 329 329 330 328 327 327 327 326 323 323 322 320 320 319 319 318 316 314 312 311 307 304 303 302 301 299 296 296 296 295 294 293 292 292 292 292 292 292 292 292 292 294 298 302 305 306 307 308 309 308 308 308 308 308 308 307 307 307 307 306 306 306 306 306 306 305 305 305 306 306 306 306 306 307 307 307 308 308 309 309 310
333 331 330 331 329 328 329 328 328 327 328 327 324 322 321 320 319 318 318 316 314 311 310 309 305 303 302 300 299 297 295 295 295 293 292 291 291 291 291 292 292 292 292 292 292 291 292 295 299 302 304 305 307 307 306 306 306 306 306 306 306 306 306 305 305 305 305 305 304 304 304 304 304 305 305 305 305 305 306 306 306 307 307 308 309
332 330 329 330 329 327 327 328 328 328 327 326 324 322 321 319 319 317 316 315 312 309 308 306 304 302 300 298 297 295 295 294 293 292 291 291 291 291 291 291 291 291 291 291 291 291 291 291 294 297 299 301 303 305 305 305 305 305 305 305 305 304 304 304 303 303 303 303 303 302 302 303 303 303 303 304 304 304 304 304 305 305 306 306 307
331 329 328 329 329 327 326 327 327 327 326 324 323 322 321 319 319 318 315 313 311 307 306 305 303 300 297 296 295 293 293 292 291 291 291 291 291 291 291 291 290 290 290 290 290 290 290 290 290 292 294 295 298 302 304 303 303 304 304 303 303 303 302 302 302 302 301 301 301 301 301 301 302 302 302 302 303 303 303 303 304 304 305 305 305
331 330 330 329 328 327 327 327 326 325 323 322 322 322 321 320 319 318 315 311 309 306 304 303 300 296 294 293 293 292 292 292 292 292 292 292 291 290 290 290 290 290 289 289 289 289 289 289 289 289 290 290 291 295 298 301 301 301 302 302 302 301 301 301 300 300 300 300 300 300 300 300 300 301 301 301 301 301 302 302 302 303 303 304 304
330 330 330 329 327 327 327 325 324 323 322 322 322 322 321 320 318 317 316 312 310 306 302 301 297 294 292 292 292 293 293 293 293 292 292 291 290 290 290 289 289 289 289 289 288 288 288 288 288 288 288 288 288 288 291 295 298 299 299 300 300 300 300 299 299 299 299 299 299 299 299 299 299 299 299 300 300 300 300 300 301 302 302 302 303
327 328 328 328 327 326 325 323 323 323 323 322 322 321 320 320 318 315 315 314 310 305 301 297 294 293 292 292 293 294 293 293 292 292 291 290 289 289 289 289 289 288 288 288 288 288 288 288 287 287 287 287 287 287 287 288 292 294 296 298 298 298 299 299 299 298 298 298 298 298 299 298 298 298 299 299 299 299 299 299 300 301 301 301 302
325 326 326 327 326 325 324 323 323 323 323 322 320 319 318 318 317 314 312 311 309 304 299 295 294 293 293 293 293 293 292 292 292 290 290 289 289 288 288 288 288 288 287 287 287 287 287 287 287 287 286 286 286 286 286 286 287 289 291 295 297 298 298 298 298 297 297 297 297 297 298 297 298 298 298 298 298 299 298 299 299 299 300 300 301
325 325 324 325 325 324 323 322 322 322 323 322 319 318 317 316 316 314 310 306 303 300 298 297 296 294 293 293 292 292 291 291 290 289 289 288 288 288 288 287 287 287 287 287 287 287 287 286 286 286 286 286 286 286 286 286 286 286 286 290 295 297 297 297 297 296 296 296 296 296 297 297 297 297 297 297 298 298 298 298 298 298 299 299 299
323 323 323 324 324 323 323 321 321 321 322 321 318 316 315 315 313 311 308 303 298 297 298 300 298 293 291 291 290 290 289 289 289 288 288 287 287 287 287 287 287 286 286 286 287 286 286 286 286 286 286 285 286 285 285 285 285 285 285 286 290 293 295 295 295 295 294 294 294 295 296 296 296 296 296 296 297 297 297 297 297 297 298 298 298
322 322 322 323 323 322 321 320 320 319 319 316 314 313 313 313 311 307 305 302 298 297 299 300 297 293 290 289 289 288 287 287 288 287 287 287 286 287 286 286 286 286 286 286 286 286 286 285 285 285 285 285 285 285 285 285 284 284 285 284 285 288 291 293 294 293 293 292 293 294 295 295 295 295 295 296 296 296 296 296 296 296 297 297 298
321 321 321 322 322 321 320 319 318 317 315 311 310 311 310 311 311 307 304 301 298 298 299 299 297 293 292 292 291 291 290 288 286 286 286 286 286 286 286 286 286 285 286 286 286 286 285 285 285 285 285 285 284 284 284 284 284 284 284 284 284 284 287 291 292 292 292 292 292 293 294 294 294 294 294 295 295 295 295 295 295 295 296 296 296
321 320 320 320 319 320 319 316 313 312 310 307 307 309 309 309 309 308 305 301 298 297 299 299 298 296 295 295 292 294 297 292 287 286 285 286 286 285 285 285 285 285 285 286 285 285 285 285 285 285 284 284 284 284 284 284 284 284 284 284 284 283 284 287 288 290 290 290 291 292 293 293 293 293 293 294 294 294 294 294 294 294 295 295 295
320 319 318 317 317 318 316 310 306 305 304 303 305 307 308 308 307 306 306 303 300 298 298 297 297 298 298 297 296 298 299 292 289 288 285 285 286 285 285 285 285 285 285 285 285 285 285 285 285 284 284 284 284 284 284 284 284 284 284 283 284 283 283 284 284 286 286 287 289 290 291 292 292 292 292 292 292 293 293 293 293 293 294 294 295
318 316 314 314 314 313 309 303 301 300 300 301 304 306 307 307 305 305 304 304 303 300 298 296 296 297 298 298 297 298 296 290 290 290 286 285 285 285 285 285 285 285 285 285 285 285 285 284 284 284 283 283 284 284 284 284 284 284 284 283 283 283 283 283 283 284 284 285 287 289 290 291 291 291 291 291 291 292 292 293 292 292 293 293 294
316 313 311 311 310 306 301 299 297 296 298 300 303 305 306 305 304 304 303 303 303 302 299 296 294 294 294 293 292 292 293 290 290 290 288 286 285 285 285 284 285 285 285 285 284 284 284 284 284 283 283 284 284 284 283 284 284 283 283 283 283 283 283 283 282 283 283 284 287 288 289 290 290 290 290 290 290 291 291 292 291 291 292 293 293
312 310 308 307 305 301 297 296 295 295 295 297 299 302 304 304 304 303 302 302 302 301 300 297 295 292 290 290 290 290 290 290 289 289 289 288 286 285 285 284 284 284 284 284 284 284 284 284 284 283 284 284 283 283 283 283 283 283 283 283 283 282 282 282 282 283 282 283 284 284 287 289 289 289 289 289 290 290 290 291 291 290 291 291 292
308 307 306 305 301 297 295 295 294 294 294 294 295 297 298 298 299 298 298 298 298 299 299 296 294 292 290 289 289 289 288 288 288 287 288 288 287 285 284 284 284 284 284 284 284 284 284 284 284 283 283 283 283 283 283 283 283 283 283 283 282 282 282 282 282 282 282 282 282 281 284 287 287 287 288 288 289 289 289 290 290 290 290 290 290
306 306 305 301 297 295 294 294 294 294 294 294 293 294 294 294 294 294 293 294 294 294 295 293 291 291 290 290 289 288 287 286 287 287 286 286 286 285 284 284 284 283 283 284 284 283 283 283 283 283 283 283 283 283 283 283 283 283 283 282 282 282 282 282 282 282 282 282 281 280 282 284 285 286 287 287 288 288 289 289 289 288 288 289 289
305 305 301 296 294 293 294 294 294 294 293 294 293 293 293 293 293 292 292 292 292 291 291 290 290 289 289 288 288 287 287 286 286 286 286 285 285 284 283 283 283 283 283 283 283 283 283 283 283 283 283 283 283 283 283 283 283 283 283 282 282 282 282 282 282 282 281 281 281 280 281 282 283 284 285 286 287 288 289 289 288 287 287 288 289
304 302 295 292 293 293 293 293 293 293 293 293 293 293 293 292 292 291 291 291 291 290 290 289 289 289 288 287 287 287 287 286 286 286 286 285 285 284 283 282 283 283 283 283 283 283 283 283 283 283 283 283 283 283 282 282 282 282 282 282 282 282 281 281 281 281 281 280 281 281 283 282 282 283 285 286 286 287 287 288 287 287 287 287 287
301 297 292 292 293 292 293 293 293 293 293 293 293 292 292 292 291 291 290 290 290 289 290 289 288 288 288 287 286 286 286 286 286 285 285 285 285 284 283 283 283 283 283 283 283 283 284 284 283 283 283 283 282 282 282 282 282 282 282 282 281 281 281 280 280 280 280 280 281 283 283 283 283 283 284 285 285 286 286 286 287 287 287 286 286
298 293 291 292 292 292 293 293 293 293 293 293 292 292 291 291 291 290 290 289 289 289 289 289 288 287 287 287 286 286 286 286 285 285 285 285 285 284 284 283 283 283 283 283 283 283 283 283 283 282 283 283 282 282 282 282 282 282 282 281 281 281 280 280 280 280 280 280 281 282 283 282 283 283 284 284 284 284 285 285 286 286 286 286 285
295 291 291 292 292 292 293 293 293 292 292 292 291 291 291 290 290 290 289 289 289 289 289 288 288 287 287 287 286 286 285 285 285 285 285 285 285 284 284 283 284 283 282 282 282 283 283 283 283 282 282 282 282 282 282 282 281 282 281 281 281 280 280 280 280 279 279 280 281 282 282 282 283 283 283 283 283 284 284 284 285 285 285 285 284
292 291 292 291 292 292 292 292 292 292 292 291 291 291 290 290 290 289 289 289 288 288 288 288 287 287 287 286 286 286 285 285 285 285 285 284 284 284 284 283 284 284 283 283 282 282 283 283 282 283 282 282 282 282 281 281 281 281 281 281 280 280 279 279 279 279 279 279 280 281 281 282 282 282 283 283 283 283 283 283 284 284 284 284 284
291 291 291 291 292 292 292 292 292 291 291 291 290 290 290 290 289 289 289 288 288 288 287 287 287 286 286 286 285 285 285 285 285 285 285 284 284 284 283 283 283 283 284 285 282 282 282 283 282 282 282 282 282 281 281 281 281 281 280 280 280 279 279 279 279 279 279 278 279 280 281 281 282 282 282 282 282 282 283 283 283 283 283 283 283
291 291 291 291 291 292 292 291 291 291 291 290 290 290 289 289 289 288 288 288 288 287 287 286 286 286 285 285 285 285 285 285 285 284 284 284 284 284 283 283 282 282 282 282 281 282 282 282 282 282 282 281 281 281 281 281 280 280 280 280 280 279 279 279 279 279 278 277 278 279 280 281 281 281 281 282 282 282 282 282 282 282 282 282 282
291 291 291 291 291 291 291 291 291 291 290 290 289 289 289 288 288 288 287 288 288 287 286 286 285 285 285 285 285 285 284 284 284 284 284 284 284 283 283 282 282 281 281 280 281 282 282 282 282 282 281 281 281 281 280 280 280 280 280 279 279 279 279 279 279 279 278 277 278 279 280 280 281 281 281 281 281 281 281 281 281 282 282 281 282
291 291 291 291 291 291 291 291 291 290 290 289 289 288 288 288 288 287 287 287 287 287 286 286 285 284 284 284 284 284 284 284 284 284 284 283 283 283 282 282 281 281 280 279 280 280 281 281 281 281 281 280 281 280 280 280 280 279 279 279 279 279 279 279 279 278 278 277 277 278 279 280 280 280 280 280 280 280 280 280 281 281 281 281 282
290 290 291 291 291 291 291 290 290 290 289 289 288 287 287 287 287 287 287 287 287 287 286 286 285 284 284 284 284 284 284 284 284 284 283 283 283 282 282 282 281 281 280 279 279 278 279 280 280 280 280 280 280 280 280 280 279 279 279 279 279 279 279 278 278 278 277 276 277 278 279 279 279 279 279 279 279 279 279 279 280 280 280 281 281
290 290 290 291 291 291 290 290 290 289 289 288 288 287 287 287 287 287 287 287 287 286 286 285 285 284 283 283 283 283 283 283 283 283 283 283 282 282 282 281 281 281 280 279 278 278 278 279 279 280 280 279 279 279 279 279 279 279 279 278 278 278 278 278 278 278 277 276 277 278 277 278 278 278 278 278 278 278 278 279 279 279 280 280 280
290 290 290 291 290 290 290 289 289 289 288 288 287 287 287 287 287 287 287 287 287 286 286 285 285 284 283 283 283 283 283 283 283 283 282 282 282 281 281 281 281 280 280 279 278 278 277 278 278 278 279 279 279 279 279 278 278 278 278 278 278 278 278 277 277 277 277 276 276 277 276 276 277 277 276 276 276 277 277 278 278 279 279 279 279
289 289 290 290 290 290 289 289 289 288 288 287 287 287 286 286 287 287 287 287 286 286 286 285 285 284 284 283 283 283 283 283 283 282 282 282 281 281 281 281 280 280 279 278 278 278 277 277 277 277 277 278 278 278 278 278 278 278 278 278 278 277 277 276 276 277 277 276 275 275 275 275 275 275 275 275 275 275 276 277 277 278 278 278 278
289 289 289 289 289 289 289 289 288 288 288 287 287 286 286 286 286 287 287 287 286 286 285 285 284 284 284 283 283 283 283 283 283 282 282 282 281 281 281 281 280 279 279 278 278 277 277 276 277 277 277 277 277 277 277 277 277 278 278 278 277 277 276 276 276 276 276 275 274 274 274 274 274 273 274 274 274 275 275 276 276 277 277 276 276
288 288 289 289 289 289 289 288 288 288 287 287 286 286 286 286 286 286 286 286 286 285 285 285 284 284 283 283 283 283 283 283 283 282 282 281 281 281 281 280 280 279 278 278 278 277 277 277 276 276 277 277 277 277 277 276 276 277 278 278 277 276 276 275 276 276 276 275 274 274 274 274 273 273 274 274 274 274 275 275 275 275 275 275 275
288 288 288 289 289 288 288 288 288 287 287 287 286 286 286 286 286 286 286 286 286 285 285 285 284 284 283 283 283 283 283 283 283 282 282 281 281 281 280 280 279 279 278 278 277 277 277 277 276 276 277 277 276 276 276 276 275 276 277 277 277 276 275 275 275 276 276 275 273 273 274 274 274 273 273 274 274 274 274 274 274 273 273 274 275
288 288 288 288 288 288 287 287 287 287 287 286 286 286 286 286 286 286 286 286 286 285 285 285 284 284 284 283 283 283 283 283 282 282 281 281 281 280 280 280 279 278 278 277 277 277 277 276 276 276 276 276 276 276 276 275 275 276 276 275 275 275 274 274 274 275 275 275 273 273 274 274 274 273 273 273 273 274 274 274 274 273 273 274 275
287 287 288 288 287 287 287 287 287 286 286 286 286 286 286 286 286 286 286 286 286 285 285 285 284 284 284 284 283 283 282 282 282 282 281 281 280 280 280 279 279 278 278 277 277 277 276 276 276 276 275 275 275 275 275 275 275 275 275 275 275 274 274 274 274 274 274 274 274 273 273 274 274 273 272 273 273 273 274 274 274 273 273 274 275
287 287 287 287 286 287 287 287 287 286 286 286 286 286 286 286 286 286 286 286 286 285 285 285 284 284 284 284 283 283 282 282 282 281 281 281 280 280 280 279 279 278 277 277 277 277 276 276 276 275 274 274 275 275 275 275 275 275 275 275 274 274 274 274 274 274 273 273 273 273 273 273 273 272 272 272 273 273 274 274 273 273 273 274 275
286 286 286 286 286 287 287 287 287 286 286 286 286 286 286 286 286 286 286 286 286 286 285 285 285 285 285 284 284 283 282 282 282 281 281 280 280 280 280 279 279 278 277 277 277 277 276 276 276 275 274 275 275 275 275 275 275 275 275 275 274 274 274 274 274 273 273 273 272 272 273 273 272 271 272 272 272 272 273 273 273 272 273 274 274
285 285 285 286 286 286 286 286 286 286 287 287 286 286 286 286 286 286 286 286 286 286 286 285 285 285 285 284 284 283 283 283 282 282 281 280 280 279 279 279 279 278 278 277 277 277 277 276 276 275 275 275 275 275 275 275 275 275 275 274 274 274 274 274 273 273 273 272 271 271 272 273 272 271 271 272 271 272 273 273 273 272 272 273 274
285 285 285 285 286 286 286 286 286 286 287 287 286 286 286 286 286 285 286 286 287 287 286 286 286 286 285 285 284 284 283 283 283 282 281 280 279 279 278 278 278 278 278 278 278 278 277 277 276 276 276 276 275 275 275 275 275 275 275 274 274 274 274 273 273 272 272 272 271 270 271 272 272 271 271 272 271 270 272 273 273 272 272 273 273
284 284 284 285 285 285 286 286 286 286 287 287 286 286 286 286 286 286 286 287 288 288 287 287 287 286 285 285 284 284 284 284 283 283 282 281 280 279 278 278 278 279 279 279 279 278 278 277 277 277 277 276 276 276 275 275 275 275 275 275 274 274 273 273 272 272 271 271 270 269 269 271 272 271 271 271 270 269 271 272 272 272 271 272 273
284 284 284 284 285 285 286 286 286 286 286 286 286 286 286 286 286 286 286 287 288 288 288 287 287 286 285 284 284 284 284 284 284 283 282 281 280 279 278 278 278 278 278 278 278 278 278 278 277 277 277 276 276 276 275 275 275 275 275 274 274 273 273 272 271 271 271 270 270 269 268 270 272 271 270 271 270 269 270 271 272 272 271 271 272
284 284 284 284 285 285 286 286 286 286 286 286 286 286 286 286 285 286 287 287 288 288 288 287 287 286 285 284 284 285 285 285 284 283 282 281 280 279 278 278 278 278 278 278 277 277 277 277 277 277 276 276 276 275 275 275 276 276 275 274 273 273 272 271 270 270 269 270 270 269 267 269 271 270 269 270 269 268 269 270 272 271 271 270 271
284 284 284 284 284 285 285 286 286 286 286 286 286 286 286 286 285 286 287 287 287 288 288 287 286 285 285 284 284 285 285 285 284 284 282 280 280 279 278 278 278 278 278 278 278 277 276 276 276 275 275 275 275 275 276 277 277 276 275 274 273 272 271 270 268 269 268 268 270 269 267 268 269 268 268 269 269 268 268 269 270 271 270 270 270
284 284 283 283 284 284 285 286 286 286 286 286 286 286 286 286 286 286 287 286 286 287 287 287 286 285 284 284 285 284 285 285 284 284 282 280 279 279 279 278 278 278 279 280 279 277 277 276 275 275 275 276 276 276 277 278 277 276 275 274 273 272 271 269 268 268 268 268 269 269 268 268 268 267 267 268 268 268 268 268 269 270 270 270 269
284 284 284 284 284 285 285 285 285 285 286 286 286 286 286 285 286 286 286 285 285 285 285 285 285 285 284 284 284 284 285 285 284 283 282 280 279 279 279 278 277 278 280 281 279 278 277 276 276 275 275 276 276 277 277 278 277 276 275 274 273 271 270 269 268 267 267 267 269 269 268 267 267 267 266 266 266 268 268 268 268 268 269 269 269
Wind_Speed
17 19 17 15 16 14 15 16 14 14 13 13 13 13 13 15 17 18 16 17 18 19 20 19 20 20 18 18 19 20 22 22 22 22 21 21 21 20 19 19 20 23 24 24 23 24 25 24 23 23 24 25 25 25 25 26 26 26 26 26 26 26 26 27 27 28 28 28 29 29 29 29 29 29 29 29 29 29 28 28 28 28 26 26 26
16 19 20 17 17 16 15 16 15 15 14 14 15 14 14 16 18 17 15 17 18 17 19 18 18 20 19 19 20 21 22 22 22 22 21 21 21 21 20 20 20 21 23 24 24 25 26 26 25 24 23 24 25 25 25 25 25 25 25 25 25 25 25 25 26 26 27 27 28 28 29 29 29 29 29 29 29 29 29 29 28 28 28 28 28
15 17 19 18 18 18 17 17 17 16 15 15 16 15 15 17 17 17 16 17 18 16 18 19 19 21 21 21 21 22 23 22 22 22 22 21 21 21 21 21 21 21 21 22 23 24 25 26 26 25 24 25 25 25 24 24 24 24 24 24 24 24 24 24 24 25 25 26 27 28 28 29 29 29 28 28 29 29 29 29 29 28 28 29 29
15 16 18 19 18 18 18 19 18 17 16 16 18 17 17 18 18 19 18 19 20 18 18 19 21 23 23 23 22 22 23 23 22 22 22 22 22 21 21 21 21 21 20 20 20 21 22 24 25 25 25 25 25 25 24 24 24 24 23 24 24 24 24 24 24 24 25 26 26 27 28 28 28 28 29 28 29 29 29 29 29 29 29 29 29
14 13 15 18 18 16 17 18 19 18 17 17 19 18 19 20 20 21 21 21 23 22 20 20 22 23 23 22 22 22 22 22 21 21 21 22 21 21 21 20 20 20 19 19 18 18 19 20 22 23 24 24 25 25 24 24 24 24 24 24 24 24 25 25 25 24 25 26 26 27 27 28 28 28 29 29 29 29 29 29 29 29 29 30 30
14 11 12 15 16 16 16 18 19 18 18 18 20 20 20 22 22 22 23 22 24 23 23 24 24 23 23 22 22 22 20 21 21 20 21 21 20 20 20 20 20 19 18 18 17 17 16 16 18 20 22 22 24 25 25 25 25 25 24 24 24 24 25 26 25 25 25 26 26 27 27 27 28 28 29 29 29 29 29 29 29 29 29 30 30
16 13 14 15 16 16 15 16 19 19 20 22 22 22 21 22 21 22 24 24 24 24 24 25 25 24 24 22 22 21 20 21 20 20 19 19 19 19 19 19 19 19 18 18 17 17 16 15 15 17 19 20 21 24 25 25 25 25 25 24 25 25 25 26 26 25 26 26 26 27 27 27 28 28 29 29 29 29 29 30 30 30 30 30 30
18 17 16 16 16 17 16 16 19 21 23 24 23 22 21 22 21 21 25 26 25 25 25 26 27 26 24 23 21 20 20 20 19 18 18 17 18 18 18 18 18 17 17 17 17 16 16 16 15 16 17 18 19 21 23 25 25 25 25 25 25 25 25 25 25 26 26 26 26 27 27 27 28 28 29 29 29 30 30 30 30 31 31 31 31
16 17 16 16 17 18 18 18 20 21 22 22 22 22 21 22 23 23 23 25 26 26 27 27 27 26 25 23 22 19 19 18 17 17 16 16 17 17 17 17 16 16 16 15 15 15 15 15 16 16 17 18 18 18 20 22 24 25 25 25 25 25 26 26 26 26 26 26 26 27 27 28 28 29 29 30 30 30 30 31 31 31 31 31 31
15 16 16 18 19 19 19 21 22 22 21 20 20 21 22 22 24 24 22 23 27 28 29 29 28 27 25 23 21 19 18 17 16 15 15 16 17 16 16 15 15 15 14 14 14 14 14 15 15 16 17 17 17 18 18 19 22 24 24 25 25 25 25 25 26 26 26 27 27 27 28 28 29 29 30 30 30 31 31 31 31 32 32 32 32
17 18 20 23 22 19 21 23 22 22 20 19 20 22 22 22 23 25 24 25 27 29 30 30 29 26 24 22 19 18 17 15 15 15 15 16 15 15 14 14 14 14 13 13 13 13 14 15 16 17 18 18 18 19 19 19 21 22 23 24 25 25 25 25 25 26 26 26 27 27 28 28 29 29 30 30 31 31 31 32 32 32 32 32 32
19 20 23 25 23 21 21 22 21 21 19 20 21 22 22 23 23 26 28 29 29 30 30 29 29 26 23 21 19 17 15 14 14 14 15 14 14 13 13 13 13 13 14 13 13 14 14 15 16 17 18 18 18 18 19 20 21 22 22 23 24 25 25 25 26 26 26 27 27 27 28 28 28 29 29 30 31 31 32 32 32 33 33 33 33
19 20 20 21 21 21 21 21 21 19 18 20 21 22 23 24 26 28 30 32 32 30 29 28 27 24 21 19 18 16 14 13 13 14 14 13 13 12 12 12 12 13 13 12 12 13 14 15 16 16 17 17 17 18 18 19 20 21 22 22 23 24 25 25 26 26 26 27 27 27 27 28 28 29 29 30 30 31 32 32 33 34 34 34 34
19 17 17 19 21 21 21 21 20 19 19 21 22 24 26 26 29 31 30 32 32 31 29 23 19 21 20 16 14 13 13 13 14 14 14 13 12 12 11 11 12 12 11 11 12 12 13 14 14 15 15 16 16 18 19 20 21 21 21 21 22 23 24 24 25 26 26 27 27 27 27 27 28 28 29 29 30 31 32 32 33 34 34 35 35
20 17 19 22 23 22 20 20 20 20 22 25 26 27 28 29 30 31 31 32 30 29 25 15 15 22 19 10 5 6 6 7 11 13 13 12 11 11 11 11 11 11 10 11 11 12 12 13 13 13 14 15 17 18 19 20 21 21 22 23 24 25 25 24 25 25 26 27 27 27 27 27 28 28 29 29 30 31 31 32 33 34 34 35 36
20 21 23 24 24 22 20 22 23 23 24 27 29 29 30 30 29 29 30 31 28 25 18 13 18 20 11 4 3 3 1 3 7 10 12 12 11 12 11 11 11 9 9 11 11 11 12 12 12 13 13 15 17 18 19 20 21 22 24 25 25 26 26 25 25 25 26 26 26 26 26 27 27 28 29 29 30 31 32 32 33 33 34 35 36
20 24 25 25 25 22 23 25 25 24 25 26 29 30 30 29 27 26 27 26 27 24 14 14 21 15 7 5 4 2 3 6 8 6 8 10 11 11 11 10 10 9 9 10 10 10 11 11 11 11 12 15 17 18 20 21 22 23 24 24 24 25 25 26 26 26 26 26 26 26 26 26 26 27 28 29 30 31 31 32 33 34 34 35 36
22 26 26 26 25 24 25 26 25 25 25 26 28 29 28 27 25 24 23 22 25 24 18 19 19 10 7 7 3 3 6 9 7 3 5 8 9 10 10 9 9 8 8 8 8 8 9 10 10 11 13 16 17 19 20 20 21 22 22 23 23 24 25 26 27 27 27 27 26 26 26 26 26 27 28 29 29 30 31 32 33 34 35 35 36
26 28 27 27 26 26 27 26 26 26 25 26 27 27 27 26 24 22 19 19 22 23 21 22 18 9 7 7 5 6 9 10 6 4 4 4 6 9 8 7 7 6 6 7 6 7 9 10 10 11 13 15 16 18 18 19 20 20 21 22 23 25 26 27 27 27 27 26 25 25 25 25 26 26 27 28 29 30 31 31 33 34 34 35 36
28 29 28 27 27 28 28 27 26 26 25 26 27 26 26 25 23 20 18 18 18 19 22 23 18 12 10 9 8 8 9 8 7 6 5 3 3 5 7 7 6 6 5 6 6 6 9 10 10 11 12 14 15 16 17 18 19 20 21 22 24 25 26 26 27 26 26 26 26 27 25 24 25 26 26 28 29 29 31 31 33 34 35 35 36
31 30 29 28 28 29 29 28 27 27 27 27 26 26 25 23 22 20 18 18 16 16 19 20 16 13 12 10 9 9 9 7 7 7 6 4 2 2 5 6 6 6 5 5 5 6 8 9 9 9 11 12 14 15 16 18 19 20 22 23 24 25 25 26 26 26 26 26 27 28 26 24 26 26 27 28 29 30 31 32 33 34 36 36 37
32 30 29 30 30 30 29 28 28 28 28 27 27 26 25 23 22 21 19 19 18 17 17 17 14 13 12 11 11 12 9 7 7 8 7 5 3 3 5 5 5 5 5 5 5 5 7 7 7 7 9 11 13 15 16 19 20 21 22 22 23 24 24 24 25 25 26 26 27 28 27 26 26 27 27 29 30 30 31 32 33 35 36 38 37
32 31 31 32 32 31 29 29 28 28 28 27 27 27 26 25 23 23 21 20 20 18 17 17 15 14 12 11 11 11 8 7 10 11 9 7 5 5 6 4 4 4 5 4 4 3 5 6 5 6 8 10 13 15 16 18 19 20 21 21 22 22 23 23 24 24 25 26 27 28 27 27 27 27 28 29 30 31 32 33 35 36 37 37 37
33 33 34 34 33 31 30 29 29 28 28 27 27 27 26 25 24 23 22 20 19 18 17 16 14 13 13 12 10 9 8 9 11 11 10 9 9 8 7 4 3 3 3 3 2 2 1 4 5 6 8 11 13 15 16 18 19 20 20 21 22 22 23 23 23 23 24 25 25 25 25 26 27 27 28 29 30 31 32 33 35 36 37 37 37
37 37 37 35 34 32 31 30 29 28 28 27 27 26 25 25 23 22 21 19 18 16 15 15 13 12 12 12 11 10 9 10 10 9 9 9 8 7 5 3 2 1 1 1 2 4 4 3 5 7 7 10 13 15 16 17 18 19 20 21 22 22 22 22 22 23 22 23 22 22 23 24 25 26 27 29 30 31 33 34 35 36 36 38 38
39 39 38 36 34 32 31 30 29 28 28 27 26 26 24 23 22 21 20 19 17 16 14 14 14 13 12 12 12 10 10 9 9 8 8 7 6 5 5 3 0 2 2 2 4 4 4 5 4 6 7 9 12 14 16 17 18 20 21 22 22 22 22 21 22 22 21 21 21 21 22 23 24 26 27 29 30 32 33 35 36 36 36 37 37
40 39 37 36 34 33 31 30 30 29 28 28 27 26 24 23 22 21 20 19 17 16 15 14 14 14 13 13 12 12 11 10 9 8 7 6 5 4 4 3 0 2 3 3 7 8 5 5 5 5 7 9 11 13 16 18 19 20 21 23 23 22 21 21 21 21 20 20 21 21 22 22 24 26 27 29 30 32 33 35 36 36 36 37 37
40 39 38 37 35 33 32 31 30 29 29 28 27 26 25 23 22 21 20 19 17 16 15 14 14 14 14 13 13 13 12 10 9 8 7 6 5 4 4 5 3 2 2 3 6 9 7 7 6 4 6 9 12 14 16 19 20 21 22 23 24 23 22 21 21 20 19 20 21 21 21 22 24 26 27 29 30 31 32 33 34 35 36 37 37
41 40 39 37 35 34 33 32 31 30 29 28 27 26 24 22 21 20 20 19 17 15 14 14 14 13 14 13 13 12 12 11 9 8 7 6 6 6 5 6 7 5 2 1 5 8 8 8 7 6 8 11 13 15 17 19 21 21 22 23 24 24 23 22 21 20 21 21 21 21 21 22 24 26 27 28 29 30 32 32 33 35 36 37 36
42 41 40 38 36 35 34 33 32 30 29 28 26 25 24 22 21 19 19 18 16 15 13 12 13 13 13 13 12 12 11 11 9 9 8 7 7 8 8 8 8 8 6 3 4 8 9 8 8 8 11 14 15 16 17 19 20 22 22 23 23 24 23 22 22 22 22 23 21 20 21 23 24 26 27 28 28 29 31 32 33 35 37 37 37
43 42 41 39 38 36 35 33 32 31 29 28 27 25 24 22 21 20 19 17 15 14 14 12 12 13 13 13 13 12 11 11 10 9 9 9 9 10 10 10 10 10 10 7 3 6 9 8 9 11 14 16 16 17 18 19 20 22 22 22 23 22 22 22 23 23 24 24 21 19 21 23 24 25 26 27 28 29 30 32 34 36 38 38 38
43 42 41 40 38 37 36 34 33 32 30 29 27 26 24 22 21 20 19 17 14 14 14 13 13 13 13 13 13 12 12 11 10 10 10 10 11 12 12 12 12 11 12 11 9 11 12 11 12 15 16 17 18 18 19 20 21 22 22 22 22 21 21 22 23 23 24 24 20 19 22 23 24 25 26 27 28 29 32 33 34 35 36 37 37
44 43 42 40 39 37 36 35 33 32 31 29 28 26 25 23 22 20 19 17 15 14 14 14 14 14 14 14 14 13 12 11 11 10 11 12 13 13 13 13 13 13 13 14 15 16 16 15 14 15 17 18 19 18 20 22 23 23 23 23 22 21 21 22 23 23 24 23 19 19 22 23 24 24 25 27 29 31 32 33 33 34 34 35 35
45 44 42 41 39 38 37 35 34 32 31 29 28 27 25 24 22 20 18 17 16 15 15 15 16 16 16 16 15 14 13 12 12 12 12 14 14 15 15 15 14 15 15 16 17 16 17 17 16 16 17 18 19 19 20 23 24 24 25 24 23 21 21 22 24 24 24 23 19 19 23 23 23 24 25 28 30 31 31 31 32 32 32 33 33
45 44 42 41 40 38 37 36 34 33 31 30 28 27 25 24 22 20 18 17 16 16 16 17 17 17 17 17 17 15 14 13 13 13 14 15 16 16 16 16 16 16 16 17 18 17 17 18 17 16 17 18 19 20 20 22 24 25 26 25 23 22 21 22 24 24 24 22 19 20 24 24 22 23 27 30 31 31 30 31 31 31 32 32 32
45 44 42 41 40 39 37 36 34 33 31 30 29 27 25 24 22 20 18 17 16 16 16 16 17 18 18 18 18 16 15 14 14 15 16 16 17 17 17 17 17 17 18 19 19 18 17 18 18 18 18 19 20 20 21 23 24 24 25 25 24 23 21 22 24 25 24 22 20 22 25 25 24 25 29 32 31 31 31 30 30 31 32 32 32
44 43 42 41 40 39 37 36 35 34 32 30 29 27 25 23 21 19 17 16 16 16 16 16 17 18 18 18 18 17 16 16 16 17 17 17 18 18 19 19 19 19 19 19 20 19 19 21 22 22 21 21 21 21 20 22 25 27 26 25 23 22 23 23 24 24 24 24 23 24 26 29 29 29 31 32 31 31 33 32 31 31 32 32 32
44 43 42 41 40 39 38 36 35 34 32 30 29 27 25 23 21 19 17 16 16 16 16 17 17 18 18 18 18 18 18 18 18 18 19 18 19 20 20 21 20 20 20 21 20 20 20 22 23 23 23 22 22 22 20 19 23 26 27 27 24 21 22 25 26 25 25 26 25 24 28 32 33 32 33 32 31 32 33 34 33 32 32 32 32
43 43 42 41 40 39 38 36 35 34 32 30 29 27 25 23 22 20 18 17 16 16 17 18 19 19 19 19 19 19 19 19 19 19 19 19 20 21 21 21 21 21 21 22 21 21 21 22 23 23 24 23 22 22 20 19 20 20 20 25 28 26 24 24 24 26 28 27 24 25 30 34 35 34 33 32 31 32 34 35 35 35 34 32 32
42 43 42 42 40 39 37 36 35 33 32 30 29 28 26 24 23 21 19 18 17 17 17 19 20 20 20 20 20 20 20 20 20 20 20 20 21 21 22 22 22 22 23 23 22 22 22 22 23 23 23 23 23 22 20 19 18 17 14 17 24 29 29 24 21 24 27 27 27 29 33 35 36 35 34 33 32 33 35 37 37 37 34 32 32
41 42 41 41 39 38 36 35 34 33 32 31 30 28 26 25 24 22 20 18 16 17 18 20 21 21 21 22 22 21 21 21 21 21 21 21 22 23 23 23 23 24 24 24 23 23 22 22 24 22 22 23 23 20 19 17 16 16 15 16 20 25 27 26 23 20 22 26 31 35 36 36 37 36 34 33 33 34 36 38 39 38 34 32 33
41 41 40 39 38 37 37 36 35 34 33 32 30 29 27 26 25 23 20 18 17 17 19 21 22 22 23 23 23 23 22 22 22 23 23 23 23 24 23 23 24 25 25 25 24 24 23 23 24 21 20 23 22 18 18 18 15 14 14 16 20 23 22 23 23 19 19 25 33 39 40 36 35 35 34 33 33 35 37 39 39 37 33 32 33
39 40 39 38 37 37 37 37 36 35 34 33 31 29 28 27 25 23 20 18 17 18 20 22 23 23 24 25 25 24 24 24 24 24 24 24 25 25 24 25 25 25 26 26 25 25 24 24 24 22 21 25 24 18 17 17 15 14 14 15 18 19 16 16 18 19 21 27 33 40 42 37 33 33 34 33 33 35 36 38 39 37 32 31 32
39 38 38 38 38 38 37 37 36 36 34 33 31 30 29 28 26 24 21 18 17 19 21 23 23 24 26 27 26 25 25 25 26 25 25 26 26 26 25 25 25 26 26 26 26 25 25 24 25 25 25 25 24 20 17 16 14 13 14 15 16 15 13 12 15 20 26 30 33 37 41 38 32 33 34 33 34 35 35 36 38 36 32 31 32
38 38 38 38 37 37 37 37 36 35 34 33 32 31 30 28 26 24 22 20 20 21 23 24 25 27 29 29 27 26 25 26 27 27 27 28 27 27 26 24 24 25 24 24 24 25 25 24 26 28 27 25 24 22 16 14 14 14 15 17 16 15 15 15 18 24 30 31 30 32 37 37 32 33 36 36 35 35 34 36 37 35 32 30 30
37 37 37 37 36 36 36 36 36 35 35 34 33 32 31 29 27 25 23 22 23 24 26 28 29 30 31 30 29 27 26 26 27 28 28 29 29 28 27 26 27 26 25 24 23 24 25 25 27 30 29 25 24 23 18 15 17 18 19 20 18 17 20 22 24 28 31 28 24 23 29 34 33 34 37 38 37 36 34 35 35 33 31 30 28
35 35 35 35 36 36 36 36 36 35 35 34 33 33 32 30 28 27 26 26 26 28 30 32 32 33 33 32 30 28 27 28 29 29 29 30 30 30 29 30 30 30 30 30 29 28 29 29 31 32 30 27 25 23 19 18 19 21 21 20 18 19 23 27 28 29 27 24 18 14 22 33 34 33 37 39 39 38 35 33 33 31 30 28 29
32 32 33 34 35 36 36 35 35 36 36 35 34 34 33 31 30 29 29 30 31 32 35 36 36 36 35 34 33 30 30 31 31 30 30 30 31 31 31 32 32 32 34 34 32 32 33 33 34 35 34 31 28 25 21 18 19 21 20 19 18 20 24 28 29 26 20 18 18 16 22 32 31 29 36 41 40 39 37 31 29 30 31 31 32
31 32 32 33 33 33 33 34 36 37 37 35 34 34 34 34 33 32 32 34 36 37 39 39 38 38 38 37 35 34 33 33 33 32 32 31 32 32 32 33 33 35 36 35 33 34 35 34 35 35 34 33 30 25 22 19 18 19 18 19 21 22 23 23 23 22 17 17 21 18 18 25 25 25 34 41 39 38 35 28 26 31 35 36 36
29 30 30 29 29 30 32 34 36 38 38 36 36 36 36 36 35 34 36 38 39 40 41 41 41 40 40 40 38 37 37 36 35 35 34 32 32 34 34 34 34 37 38 36 34 35 34 33 33 33 31 29 27 24 23 23 23 22 22 24 25 23 22 21 21 24 23 20 18 13 12 19 23 23 28 36 38 36 29 21 26 35 39 39 39
28 28 28 28 29 30 32 34 36 37 38 37 37 37 37 37 36 36 37 38 39 41 41 42 42 42 42 42 41 40 40 39 38 38 37 34 33 35 36 34 35 39 41 38 36 35 33 32 32 32 31 29 27 26 28 28 27 26 26 28 27 24 24 25 23 21 17 12 9 9 13 20 22 18 18 21 25 29 28 24 29 38 40 38 38
Wind_Direction
195 188 183 182 181 179 168 164 167 162 161 160 148 142 140 128 119 110 103 103 101 102 99 94 94 89 82 84 86 86 85 83 80 78 76 74 73 71 70 72 75 75 70 63 59 57 56 56 55 53 53 53 52 51 50 49 48 47 45 44 43 42 40 38 37 34 32 29 27 24 22 20 17 15 14 12 10 9 7 5 4 1 356 351 347
208 195 184 182 182 181 176 171 173 172 171 170 160 154 147 137 126 116 113 110 106 108 104 99 98 95 93 93 93 90 87 83 80 78 76 74 74 72 71 71 74 77 75 70 64 60 57 55 55 53 51 51 51 50 49 48 47 46 44 42 40 39 36 35 34 31 29 26 24 22 20 18 15 13 11 9 8 7 5 3 1 0 359 357 355
210 197 186 185 183 182 186 181 180 181 181 179 170 163 155 146 136 127 126 119 114 114 110 106 102 100 100 99 97 94 89 86 83 80 79 77 76 75 74 72 71 73 74 74 71 67 61 56 55 54 52 50 49 48 47 46 44 43 42 39 37 35 33 31 30 28 25 22 20 18 16 14 13 11 9 7 6 5 4 2 360 357 355 355 355
196 190 189 192 186 184 192 185 182 187 189 186 177 169 159 152 144 136 133 128 123 121 115 110 107 106 104 102 99 95 91 88 84 82 81 79 78 75 73 71 69 68 68 70 71 70 66 61 56 54 53 51 49 48 47 45 43 41 39 38 36 33 31 28 26 24 21 18 16 14 12 11 10 9 7 6 5 3 2 1 359 356 354 353 352
193 190 191 195 192 189 195 190 186 191 193 190 180 170 161 153 146 139 136 132 127 123 120 114 112 111 107 105 101 96 94 89 86 84 82 79 77 74 71 68 66 64 63 63 64 65 65 64 61 56 53 51 48 47 45 44 42 40 38 36 34 32 29 27 25 22 19 17 15 12 11 9 8 7 6 4 3 2 0 359 357 355 353 351 349
198 200 197 197 198 194 194 193 190 191 191 187 179 169 161 153 146 139 136 133 127 125 123 118 116 114 110 108 104 100 97 92 89 87 83 80 76 72 69 66 63 62 60 59 59 61 62 62 63 60 55 52 49 46 43 42 40 39 37 34 32 30 29 27 24 21 19 17 14 12 10 8 7 6 4 2 1 0 359 357 354 353 351 349 347
197 208 207 206 208 199 192 193 194 191 184 178 173 164 157 152 147 143 135 131 129 125 123 120 119 116 112 110 105 103 99 95 93 87 82 78 73 69 66 63 61 58 57 56 56 59 60 59 61 61 58 54 51 47 42 40 38 37 35 33 31 29 27 25 23 20 18 16 14 11 9 8 7 5 3 1 0 358 357 355 352 351 348 346 345
199 202 203 212 212 199 190 191 190 183 172 166 164 158 155 151 148 148 138 132 132 127 124 123 121 117 114 112 107 105 100 95 91 85 80 74 70 67 64 62 60 58 57 57 56 57 58 57 55 56 56 52 50 47 43 39 36 34 33 30 28 26 25 23 20 19 16 15 12 11 9 7 6 4 2 1 359 357 355 353 351 349 347 344 342
201 196 203 213 203 190 185 180 176 170 163 160 158 156 156 152 147 148 143 138 137 131 127 125 122 119 116 113 109 106 100 95 89 84 79 73 70 67 64 63 61 61 60 60 61 60 59 58 54 52 53 49 46 44 41 39 35 32 29 27 25 24 22 21 19 17 16 14 12 11 9 7 5 3 2 359 358 356 354 352 350 348 346 343 341
209 205 206 203 189 181 175 168 166 165 162 159 159 157 157 155 149 147 147 144 141 135 131 127 123 120 115 111 109 105 99 95 90 84 76 71 68 66 65 64 62 62 63 64 66 66 64 61 56 53 52 49 45 41 39 38 35 31 28 25 22 21 21 19 18 16 15 14 12 10 8 6 3 1 0 358 357 355 353 351 349 347 345 342 340
211 211 201 189 180 176 169 164 166 167 164 163 163 160 157 157 152 148 146 144 142 139 134 128 123 119 114 109 106 103 100 95 89 81 74 70 69 69 67 67 67 68 69 69 69 67 63 59 55 54 52 49 45 41 37 36 34 30 27 25 22 20 19 18 17 15 14 12 9 8 6 4 2 360 358 356 355 354 351 350 347 345 343 341 339
197 197 188 178 172 171 168 165 168 169 169 169 166 163 162 159 154 151 146 139 138 138 136 133 124 115 111 109 105 102 99 96 90 82 76 74 74 74 74 74 73 72 71 70 68 64 60 55 54 53 51 48 44 40 35 32 31 27 23 23 21 19 17 15 14 12 11 9 7 6 4 2 0 358 356 355 354 352 350 348 346 344 342 340 337
185 181 178 174 171 171 171 167 169 172 175 172 168 166 165 161 153 149 147 139 136 137 140 139 127 115 109 105 101 100 97 95 91 84 80 79 80 79 79 78 76 75 73 71 68 63 59 56 53 51 47 45 41 37 33 29 27 24 20 19 19 17 15 13 11 10 8 7 5 4 2 1 359 356 354 353 351 350 348 346 344 342 340 339 337
187 183 188 187 181 173 170 170 172 176 177 171 168 166 164 162 154 147 147 144 141 141 144 142 132 129 124 109 98 97 96 94 90 85 81 81 83 83 83 83 80 80 79 75 71 66 61 56 53 51 46 43 39 35 31 28 25 23 19 17 18 17 15 12 10 9 7 6 5 3 1 360 357 355 353 351 350 348 346 344 342 341 339 337 335
188 193 197 190 182 175 175 181 181 181 176 167 165 165 161 161 160 153 149 146 145 148 152 151 144 140 131 119 119 114 101 97 92 86 83 85 88 89 88 88 85 85 85 81 75 67 63 59 53 50 46 40 37 33 30 27 25 21 19 19 18 17 15 13 10 9 7 5 4 2 0 358 356 354 352 350 348 346 344 342 340 339 337 335 333
189 195 193 186 181 180 185 185 180 178 175 166 162 163 162 162 164 162 156 151 149 155 161 163 157 148 132 114 140 139 165 169 122 93 85 88 92 94 91 90 88 85 84 80 75 67 62 58 53 49 45 38 34 31 28 26 23 19 18 18 16 14 13 11 9 7 5 4 3 1 358 357 354 351 350 348 346 344 342 339 338 336 335 333 331
191 195 189 185 182 181 183 178 172 171 168 163 161 162 164 166 167 166 165 160 159 161 165 167 166 162 155 140 126 158 206 167 144 113 96 94 96 99 92 88 87 82 81 79 74 70 63 57 54 52 45 37 32 29 27 24 21 17 16 15 13 10 8 7 5 4 2 1 0 359 356 354 352 350 347 346 344 342 340 338 336 334 332 331 330
194 193 186 184 181 178 176 171 166 163 160 159 160 162 164 167 170 169 170 170 168 165 161 167 173 181 189 183 193 208 175 152 143 131 118 100 94 100 92 84 83 77 85 89 83 76 68 59 57 54 43 35 32 28 25 22 19 15 13 12 9 7 6 4 2 1 0 360 358 356 354 352 350 348 345 344 342 340 338 336 334 333 331 329 328
192 188 183 181 178 174 171 167 162 158 157 159 159 163 166 168 171 173 174 176 175 170 164 167 173 174 178 183 177 159 154 157 154 136 141 121 101 104 97 90 90 89 99 106 100 81 65 59 56 50 39 33 30 26 22 19 16 13 10 10 8 7 6 4 2 1 359 358 355 353 352 350 347 346 343 341 340 338 336 334 333 332 330 327 326
187 183 181 179 176 173 169 166 161 157 158 159 158 162 166 167 170 175 178 180 185 181 170 171 174 164 155 153 143 137 144 152 152 141 137 134 118 108 106 105 99 100 113 123 117 84 61 54 51 44 35 31 29 24 19 15 13 10 9 9 7 6 4 2 1 359 356 354 351 351 350 347 344 343 341 340 338 335 333 332 331 329 327 325 324
183 181 179 178 176 173 169 166 162 160 160 158 155 158 160 162 165 170 172 175 182 182 172 172 179 173 161 155 146 138 136 133 137 141 125 126 172 175 143 130 107 96 110 137 127 81 60 50 45 40 32 28 25 20 15 12 9 7 6 5 3 2 0 358 356 354 352 350 349 350 348 345 343 342 340 339 336 333 332 330 329 328 326 323 322
181 179 179 177 175 172 169 167 164 162 162 158 155 156 156 158 161 164 166 166 166 169 168 168 173 174 170 170 163 151 145 141 148 150 132 126 152 182 174 157 134 110 103 140 140 90 68 52 44 38 28 26 21 15 13 9 5 3 2 360 357 356 355 353 351 350 349 348 348 349 347 344 343 342 340 338 335 333 331 330 328 326 324 322 322
180 179 177 175 173 171 168 167 165 163 162 159 157 156 157 158 160 161 163 162 161 162 163 162 163 165 164 168 168 161 158 161 162 159 153 144 141 168 185 177 161 138 99 122 151 104 67 45 34 28 19 19 16 11 9 6 1 357 356 354 351 351 350 349 348 348 347 348 348 348 346 343 341 340 339 337 334 333 331 329 327 325 324 323 323
180 178 176 173 172 170 169 167 165 163 162 158 157 156 156 157 158 159 159 158 158 158 156 155 157 160 159 161 165 166 161 155 156 155 155 152 145 156 172 171 170 154 105 110 184 220 101 21 9 8 7 9 9 5 3 360 354 350 348 348 347 347 347 347 347 348 348 348 347 345 343 340 339 339 338 336 334 332 330 328 327 326 325 323 323
178 177 175 174 173 171 170 169 166 165 162 159 158 157 157 157 157 158 158 156 155 156 153 152 155 160 161 162 164 165 157 150 152 152 149 149 145 145 153 156 163 152 107 146 198 229 236 266 329 349 354 1 2 357 354 351 347 343 341 342 344 345 346 346 347 349 348 346 343 341 340 338 338 338 336 334 333 331 330 328 327 326 325 324 323
178 176 175 174 174 173 172 170 168 165 162 160 159 159 159 159 159 160 158 156 156 157 157 157 159 162 163 163 164 165 163 157 156 157 155 155 155 152 145 134 53 288 261 219 213 227 243 246 281 333 343 350 352 347 344 341 340 338 336 338 341 344 345 345 347 350 348 343 340 339 338 337 337 336 335 334 332 330 329 327 326 326 325 324 323
178 177 176 175 175 174 173 171 168 166 164 163 162 162 163 163 162 162 160 159 160 160 161 163 164 166 167 168 168 167 168 167 166 168 171 172 172 172 163 144 65 282 254 242 233 230 237 249 269 310 330 338 339 336 335 334 333 333 333 336 339 343 344 344 349 351 348 344 340 339 339 338 338 336 335 333 331 330 329 327 326 325 324 323 322
179 178 178 177 177 175 174 173 171 169 167 167 166 166 167 167 166 165 163 162 164 164 164 167 169 170 171 173 173 172 173 176 178 180 185 190 195 203 202 187 178 218 273 277 248 237 239 247 256 284 311 323 326 326 328 328 328 329 332 335 337 340 342 345 351 352 350 347 341 339 340 339 338 336 334 333 332 331 329 328 326 324 323 322 322
181 181 180 179 178 177 176 175 173 172 171 171 171 170 170 171 170 169 167 165 165 166 168 172 175 176 178 178 178 178 178 181 187 193 200 209 216 221 228 215 196 190 192 264 246 234 238 249 251 271 300 310 315 317 320 323 325 328 331 334 336 338 340 345 350 351 352 352 345 340 341 339 338 336 334 333 333 331 329 328 326 324 322 322 322
183 182 181 180 179 179 178 177 176 175 175 174 174 174 174 174 173 173 171 167 166 168 172 179 183 185 186 185 185 186 186 190 197 203 211 222 230 232 235 232 222 211 201 200 246 236 235 250 256 266 290 301 306 310 314 319 322 325 329 333 335 337 339 343 349 350 353 354 348 341 340 338 336 335 334 333 332 331 330 328 326 324 322 322 322
185 184 183 182 181 181 181 180 179 178 179 179 178 179 178 178 177 176 175 171 170 172 175 184 193 196 198 195 195 196 196 200 206 214 223 230 237 239 238 238 235 230 220 208 226 242 232 240 262 274 286 296 300 305 311 316 320 323 327 331 333 336 338 341 347 350 352 354 348 340 337 336 336 335 334 334 333 331 330 327 325 323 322 322 322
187 186 185 184 183 183 183 183 183 182 182 182 182 183 183 183 182 180 177 173 174 177 180 189 198 205 211 209 207 207 207 211 215 222 231 238 241 242 243 242 238 237 233 221 225 247 249 251 268 278 286 291 296 304 310 314 319 322 325 330 333 335 337 340 346 349 350 352 347 337 335 335 334 335 334 334 333 331 329 327 325 324 322 322 322
189 189 188 187 186 186 186 187 186 186 185 185 186 187 187 187 186 184 181 177 178 182 187 195 203 209 217 219 218 216 216 220 226 231 238 242 245 245 244 245 243 241 239 231 233 250 262 266 270 278 284 289 295 305 311 313 318 322 325 330 333 336 338 339 344 348 349 351 345 334 334 334 332 335 335 333 332 330 330 328 326 325 323 322 323
191 191 190 189 189 189 190 190 190 190 189 189 190 190 190 191 189 187 185 183 183 187 193 201 207 212 217 222 225 224 222 227 233 239 243 244 246 247 247 247 247 246 244 239 239 250 266 274 275 278 282 287 295 305 311 313 318 321 324 329 332 336 339 340 343 346 347 349 341 332 335 333 331 334 333 332 333 332 332 330 327 326 324 323 324
193 193 192 192 192 192 193 193 193 193 193 193 194 194 195 195 193 190 189 190 190 194 200 206 210 214 218 223 227 229 229 234 238 241 244 246 247 249 250 251 250 249 246 244 245 251 267 279 281 280 282 287 296 304 310 313 317 320 323 327 330 334 338 339 341 342 345 345 336 332 337 334 330 332 334 335 336 335 334 331 328 327 325 324 324
194 193 194 194 194 195 196 196 197 197 197 197 198 198 199 200 199 196 193 194 197 202 208 212 215 219 223 226 230 233 236 239 243 244 245 247 249 251 253 253 252 251 249 248 251 256 265 275 280 281 284 290 297 305 311 314 316 319 322 325 328 331 335 337 338 338 341 340 331 332 339 337 331 332 337 340 340 338 338 335 329 327 326 325 324
195 195 195 196 197 198 199 200 200 200 200 200 201 202 202 203 205 203 201 199 201 206 212 217 222 226 228 231 235 239 241 242 245 247 248 250 252 254 255 254 253 251 250 252 255 258 263 270 277 283 287 293 300 306 312 315 316 318 321 324 327 329 330 332 334 336 337 334 330 332 338 337 333 333 339 343 342 341 343 338 330 327 326 325 323
197 196 197 198 200 201 202 203 204 204 204 203 204 205 205 205 206 207 207 205 206 210 216 221 228 231 234 237 240 243 245 247 249 251 252 253 254 256 257 256 254 252 252 253 255 258 263 268 275 282 287 293 300 305 311 316 318 320 322 324 324 325 328 330 331 333 333 329 327 332 338 337 333 333 339 343 342 342 344 339 332 328 327 325 324
198 199 200 201 202 204 205 206 207 208 207 206 207 209 209 208 209 209 209 209 210 215 221 227 232 235 238 240 243 246 248 251 254 255 256 256 256 257 258 257 256 254 253 254 255 258 263 269 273 278 284 291 295 300 307 315 319 322 325 323 320 321 326 329 327 328 331 328 324 329 336 335 332 333 338 341 342 342 342 339 335 332 330 327 324
201 202 203 204 204 205 207 208 210 211 210 210 210 211 211 212 213 213 212 212 214 219 225 231 235 238 241 243 245 248 251 253 256 258 258 258 257 258 258 257 255 255 254 254 255 258 262 267 272 276 283 287 290 297 305 313 318 321 324 320 315 317 322 323 320 323 329 328 324 325 331 333 331 331 335 338 341 341 341 339 337 336 334 328 323
203 204 206 206 206 206 208 210 212 213 213 213 213 213 214 215 216 217 216 216 220 225 231 235 238 241 243 245 247 249 251 253 256 258 258 258 258 258 258 257 255 254 254 253 254 257 260 264 268 273 279 282 287 295 301 306 312 313 312 311 310 314 317 315 313 319 326 325 323 324 328 331 330 329 332 336 339 341 340 338 338 338 334 325 323
205 206 207 208 208 208 209 211 213 215 216 216 216 216 217 218 220 219 218 220 224 230 235 239 242 245 247 249 250 250 251 253 254 256 257 257 258 259 260 259 257 255 253 252 253 255 257 259 264 268 273 276 280 286 293 299 306 304 301 306 311 313 314 312 313 318 323 323 322 322 324 327 327 326 328 332 336 340 339 337 338 336 329 322 323
207 208 209 209 210 211 212 213 215 216 217 217 218 219 219 221 223 222 221 223 228 234 239 242 245 249 251 251 250 249 250 252 253 254 256 257 258 259 260 260 259 256 254 253 254 255 255 257 262 264 264 269 276 281 286 293 298 293 291 300 307 306 306 308 309 310 316 320 321 320 319 323 324 322 324 329 332 337 338 336 336 334 326 321 323
209 210 211 212 212 212 214 215 217 218 219 219 220 221 222 222 224 225 226 228 233 238 242 245 248 252 252 251 250 249 249 252 254 255 256 256 257 258 261 262 261 259 257 256 256 257 256 257 261 261 259 264 272 275 278 286 288 282 285 294 297 291 288 290 291 296 306 315 318 316 314 317 321 320 320 325 328 332 336 335 334 333 326 322 322
210 212 213 214 214 214 215 216 219 220 221 221 222 223 224 224 225 227 228 231 238 243 246 248 251 252 251 250 249 248 249 251 253 255 256 257 256 256 257 258 257 257 256 256 258 260 260 259 259 261 262 263 267 270 274 278 276 275 283 289 285 276 276 279 282 291 301 308 313 312 307 310 319 318 316 321 324 327 333 335 334 332 327 322 321
210 212 213 214 215 216 217 219 221 223 223 223 224 225 225 226 227 228 230 236 243 248 249 250 251 252 251 250 249 249 250 251 253 255 257 258 258 257 255 253 253 251 248 247 250 254 257 257 256 261 265 264 263 269 273 269 269 276 283 282 275 271 277 282 285 291 299 305 311 308 301 305 316 316 314 319 321 320 328 335 334 332 330 324 320
211 213 214 216 217 218 219 221 223 226 227 226 225 226 227 227 228 230 234 239 245 251 252 251 251 251 250 250 250 250 251 253 254 256 258 261 261 260 258 256 256 254 250 249 250 251 252 254 257 263 267 265 262 267 271 269 272 276 274 269 268 276 285 290 291 294 299 304 308 301 292 300 312 314 312 318 320 316 322 333 334 333 332 325 320
213 215 217 219 220 220 221 223 226 229 230 228 227 228 229 229 230 233 238 242 247 252 254 252 250 250 250 250 251 251 252 254 255 256 259 262 262 261 260 260 260 258 256 256 256 255 253 254 258 262 264 263 262 265 267 267 271 269 262 262 272 283 291 295 295 296 299 301 306 300 287 294 307 314 312 316 318 314 317 330 335 334 331 326 324
214 217 219 221 222 223 224 226 230 232 233 231 230 230 231 231 231 235 241 245 248 252 254 253 251 250 250 251 252 253 254 256 256 258 259 260 262 262 261 261 262 261 261 262 260 258 256 256 258 260 260 259 258 257 256 255 256 254 256 268 280 286 291 293 293 294 293 295 304 302 281 286 305 315 312 315 317 313 315 326 334 332 329 326 327
217 219 222 224 226 228 230 231 234 235 236 235 233 233 233 233 234 238 242 245 248 252 253 253 252 251 251 253 254 255 256 258 259 260 259 258 260 262 262 262 261 262 265 267 264 262 260 259 258 257 255 253 249 248 250 248 243 242 253 272 282 285 285 281 280 288 293 296 303 298 271 284 305 315 316 318 318 314 315 323 328 327 327 327 328
222 224 227 230 232 235 236 237 238 238 239 238 236 236 236 235 236 239 242 244 246 250 252 253 253 253 253 254 255 256 258 259 260 261 261 259 258 260 262 262 260 263 269 271 268 267 265 261 258 256 252 249 245 245 247 246 243 247 261 275 280 279 279 276 273 280 291 299 302 290 283 295 306 313 321 325 320 316 316 316 319 322 324 326 327